Location: Newark
(59.4564°N, 26.6917°E)
Time: 08:56:22
(UTC+00:00)

Vanguard 3 - Pass Details

Date: 22 November 2019
Orbit: 508 x 3263 km, 33.3° (Epoch: 10 December)

Event Time Altitude Azimuth Distance (km) Brightness Sun altitude
Rises 15:20:45 0° 258° (WSW) 7,233 14.0 -12.5°
Reaches altitude 10° 15:27:29 10° 246° (WSW) 6,143 13.1 -13.3°
Maximum altitude 15:39:26 21° 207° (SSW) 4,760 11.5 -14.8°
Drops below altitude 10° 15:49:14 10° 166° (SSE) 4,914 11.1 -16.0°
Sets 15:53:46 0° 151° (SSE) 5,476 11.2 -16.6°
